Weather History for Bentonville, AR

Change the Weather History Date:

Sunday, December 30, 2012

  Actual Average Record
Temperature  
Mean Temperature 29 °F -  
Max Temperature 41 °F 44 °F 75 °F (1951)
Min Temperature 17 °F 24 °F -7 °F (1983)
Degree Days  
Heating Degree Days 36    
Moisture  
Dew Point 17 °F    
Average Humidity 61    
Maximum Humidity 86    
Minimum Humidity 39    
Precipitation  
Precipitation 0.00 in - - ()
Sea Level Pressure  
Sea Level Pressure 30.32 in    
Wind  
Wind Speed 6 mph (South)    
Max Wind Speed 14 mph    
Max Gust Speed 18 mph    
Visibility 10 miles    
Events      
Averages and records for this station are not official NWS values.
T = Trace of Precipitation, MM = Missing Value Source: NWS Daily Summary

Daily Weather History Graph

Daily Weather History Graph

Search for Another Location

Airport:

Trip Planner

Search our weather history database for the weather conditions in past years. The results will help you decide how hot, cold, wet, or windy it might be!

Date:

Astronomy

Dec. 30, 2012 Rise Set
Actual Time 7:28 AM CST 5:11 PM CST
Civil Twilight 6:59 AM CST 5:40 PM CST
Nautical Twilight 6:27 AM CST 6:12 PM CST
Astronomical Twilight 5:55 AM CST 6:43 PM CST
Moon 7:38 PM CST (12/30) 8:41 AM CST (12/30)
Length of Visible Light 10h 40m
Length of Day
9h 43m
Waning Gibbous, 95% of the Moon is Illuminated
Dec 30
Waning Gibbous
Jan 4
Last Quarter
Jan 11
New
Jan 18
First Quarter
Jan 26
Full

Hourly Weather History & Observations

Time (CST) Temp. Windchill Dew Point Humidity Pressure Visibility Wind Dir Wind Speed Gust Speed Precip Events Conditions
12:15 AM 21.2 °F 16.4 °F 15.8 °F 80% 30.37 in 10.0 mi South 3.5 mph - N/A   Clear
12:55 AM 19.4 °F 14.3 °F 14.0 °F 80% 30.37 in 10.0 mi South 3.5 mph - N/A   Clear
1:15 AM 19.4 °F 14.3 °F 15.8 °F 86% 30.37 in 10.0 mi South 3.5 mph - N/A   Clear
1:35 AM 19.4 °F 14.3 °F 15.8 °F 86% 30.37 in 10.0 mi South 3.5 mph - N/A   Clear
1:55 AM 17.6 °F 12.3 °F 12.2 °F 79% 30.36 in 10.0 mi SSE 3.5 mph - N/A   Clear
2:15 AM 17.6 °F 10.7 °F 12.2 °F 79% 30.36 in 10.0 mi SSE 4.6 mph - N/A   Clear
2:35 AM 19.4 °F 14.3 °F 12.2 °F 74% 30.37 in 10.0 mi South 3.5 mph - N/A   Clear
2:55 AM 19.4 °F 12.8 °F 14.0 °F 80% 30.39 in 10.0 mi SSW 4.6 mph - N/A   Clear
3:35 AM 19.4 °F 12.8 °F 14.0 °F 80% 30.38 in 10.0 mi SSE 4.6 mph - N/A   Clear
3:55 AM 19.4 °F - 14.0 °F 80% 30.38 in 10.0 mi Calm Calm - N/A   Clear
4:15 AM 19.4 °F 14.3 °F 15.8 °F 86% 30.38 in 10.0 mi SSE 3.5 mph - N/A   Clear
4:35 AM 19.4 °F 12.8 °F 14.0 °F 80% 30.38 in 10.0 mi South 4.6 mph - N/A   Clear
4:55 AM 19.4 °F 12.8 °F 12.2 °F 74% 30.38 in 10.0 mi South 4.6 mph - N/A   Clear
5:15 AM 19.4 °F 12.8 °F 12.2 °F 74% 30.37 in 10.0 mi South 4.6 mph - N/A   Clear
5:35 AM 17.6 °F 10.7 °F 10.4 °F 73% 30.37 in 10.0 mi SSE 4.6 mph - N/A   Clear
5:55 AM 17.6 °F 10.7 °F 12.2 °F 79% 30.37 in 10.0 mi SSE 4.6 mph - N/A   Clear
6:15 AM 17.6 °F 9.3 °F 12.2 °F 79% 30.37 in 10.0 mi SSE 5.8 mph - N/A   Clear
6:35 AM 19.4 °F 12.8 °F 14.0 °F 80% 30.37 in 10.0 mi SSE 4.6 mph - N/A   Clear
6:55 AM 19.4 °F 12.8 °F 14.0 °F 80% 30.37 in 10.0 mi SSE 4.6 mph - N/A   Clear
7:15 AM 19.4 °F 12.8 °F 15.8 °F 86% 30.37 in 10.0 mi SSE 4.6 mph - N/A   Clear
7:35 AM 19.4 °F 12.8 °F 12.2 °F 74% 30.38 in 10.0 mi SSE 4.6 mph - N/A   Clear
7:55 AM 19.4 °F 11.5 °F 14.0 °F 80% 30.36 in 10.0 mi SSE 5.8 mph - N/A   Clear
8:15 AM 23.0 °F 18.4 °F 15.8 °F 74% 30.38 in 10.0 mi South 3.5 mph - N/A   Clear
8:35 AM 24.8 °F 19.1 °F 17.6 °F 74% 30.38 in 10.0 mi SSE 4.6 mph - N/A   Clear
8:55 AM 26.6 °F 21.2 °F 19.4 °F 74% 30.39 in 10.0 mi SSE 4.6 mph - N/A   Clear
9:15 AM 28.4 °F 24.6 °F 19.4 °F 69% 30.40 in 10.0 mi South 3.5 mph - N/A   Clear
9:35 AM 30.2 °F 24.3 °F 21.2 °F 69% 30.40 in 10.0 mi South 5.8 mph - N/A   Clear
9:55 AM 30.2 °F 24.3 °F 19.4 °F 64% 30.40 in 10.0 mi South 5.8 mph - N/A   Clear
10:15 AM 32.0 °F 26.4 °F 19.4 °F 60% 30.40 in 10.0 mi South 5.8 mph - N/A   Clear
10:35 AM 33.8 °F 27.7 °F 21.2 °F 60% 30.39 in 10.0 mi South 6.9 mph - N/A   Clear
10:55 AM 35.6 °F 29.2 °F 23.0 °F 60% 30.38 in 10.0 mi South 8.1 mph - N/A   Clear
11:15 AM 37.4 °F 30.3 °F 21.2 °F 52% 30.37 in 10.0 mi South 10.4 mph - N/A   Clear
11:35 AM 37.4 °F 32.1 °F 21.2 °F 52% 30.36 in 10.0 mi South 6.9 mph - N/A   Clear
11:55 AM 39.2 °F 32.5 °F 19.4 °F 45% 30.35 in 10.0 mi South 10.4 mph - N/A   Clear
12:15 PM 39.2 °F 32.0 °F 21.2 °F 49% 30.35 in 10.0 mi South 11.5 mph - N/A   Clear
12:35 PM 39.2 °F 32.5 °F 21.2 °F 49% 30.33 in 10.0 mi SSW 10.4 mph - N/A   Clear
12:55 PM 39.2 °F 33.0 °F 19.4 °F 45% 30.33 in 10.0 mi South 9.2 mph - N/A   Clear
1:35 PM 41.0 °F 34.3 °F 17.6 °F 39% 30.31 in 10.0 mi SSW 11.5 mph - N/A   Clear
1:55 PM 41.0 °F 33.9 °F 17.6 °F 39% 30.30 in 10.0 mi SSW 12.7 mph 17.3 mph N/A   Clear
2:15 PM 41.0 °F 34.7 °F 17.6 °F 39% 30.30 in 10.0 mi South 10.4 mph 17.3 mph N/A   Clear
2:35 PM 41.0 °F 34.7 °F 17.6 °F 39% 30.30 in 10.0 mi South 10.4 mph - N/A   Clear
2:55 PM 41.0 °F 33.5 °F 17.6 °F 39% 30.30 in 10.0 mi SSW 13.8 mph 18.4 mph N/A   Clear
3:35 PM 39.2 °F 32.5 °F 15.8 °F 39% 30.29 in 10.0 mi South 10.4 mph - N/A   Clear
3:55 PM 39.2 °F 32.0 °F 17.6 °F 42% 30.29 in 10.0 mi South 11.5 mph - N/A   Clear
4:15 PM 39.2 °F 32.0 °F 17.6 °F 42% 30.28 in 10.0 mi SSW 11.5 mph - N/A   Clear
4:35 PM 39.2 °F 33.6 °F 17.6 °F 42% 30.27 in 10.0 mi South 8.1 mph - N/A   Clear
4:55 PM 37.4 °F 31.4 °F 17.6 °F 45% 30.27 in 10.0 mi South 8.1 mph - N/A   Clear
5:35 PM 35.6 °F 29.2 °F 17.6 °F 48% 30.25 in 10.0 mi SSE 8.1 mph - N/A   Clear
5:55 PM 35.6 °F 30.7 °F 17.6 °F 48% 30.26 in 10.0 mi South 5.8 mph - N/A   Clear
6:15 PM 35.6 °F 30.7 °F 17.6 °F 48% 30.25 in 10.0 mi South 5.8 mph - N/A   Clear
6:35 PM 35.6 °F 29.9 °F 17.6 °F 48% 30.25 in 10.0 mi South 6.9 mph - N/A   Clear
6:55 PM 35.6 °F 29.9 °F 17.6 °F 48% 30.24 in 10.0 mi SSE 6.9 mph - N/A   Clear
7:35 PM 35.6 °F 30.7 °F 17.6 °F 48% 30.23 in 10.0 mi SSE 5.8 mph - N/A   Clear
7:55 PM 35.6 °F 29.2 °F 17.6 °F 48% 30.22 in 10.0 mi SSE 8.1 mph - N/A   Clear
8:15 PM 35.6 °F 28.6 °F 17.6 °F 48% 30.22 in 10.0 mi SSE 9.2 mph - N/A   Clear
8:55 PM 35.6 °F 29.2 °F 17.6 °F 48% 30.21 in 10.0 mi SSE 8.1 mph - N/A   Clear
9:15 PM 35.6 °F 30.7 °F 17.6 °F 48% 30.22 in 10.0 mi South 5.8 mph - N/A   Clear
9:35 PM 35.6 °F 29.2 °F 17.6 °F 48% 30.21 in 10.0 mi South 8.1 mph - N/A   Clear
9:55 PM 35.6 °F 29.2 °F 17.6 °F 48% 30.21 in 10.0 mi South 8.1 mph - N/A   Clear
10:15 PM 35.6 °F 29.2 °F 19.4 °F 52% 30.21 in 10.0 mi South 8.1 mph - N/A   Clear
10:35 PM 35.6 °F 27.5 °F 19.4 °F 52% 30.19 in 10.0 mi South 11.5 mph - N/A   Clear
11:15 PM 37.4 °F 29.8 °F 21.2 °F 52% 30.19 in 10.0 mi South 11.5 mph - N/A   Scattered Clouds
11:35 PM 37.4 °F 29.8 °F 21.2 °F 52% 30.20 in 10.0 mi South 11.5 mph 17.3 mph N/A   Partly Cloudy